Regional Weather Roundup
Issued by NWS San Diego, CA

Home | Current Version | Previous Version | Text Only | Print | Product List | Glossary On
Versions: 1 2 3 4 5 6 7 8 9 10 11 12 13 14 15 16 17 18 19 20 21 22 23 24 25 26 27 28 29 30 31 32 33 34 35 36 37 38 39 40 41 42 43 44 45 46 47 48 49 50
000
ASUS46 KSGX 060511
RWRSGX

SAN DIEGO HOURLY WEATHER ROUNDUP
NATIONAL WEATHER SERVICE SAN DIEGO CA
1000 PM PDT SUN JUL 05 2015

NOTE: "FAIR" INDICATES FEW OR NO CLOUDS BELOW 12,000 FEET WITH NO
SIGNIFICANT WEATHER AND/OR OBSTRUCTIONS TO VISIBILITY.

CAZ042-043-060-061-PZZ750-775-060600-

GREATER SAN DIEGO AREA

CITY           SKY/WX    TMP DP  RH WIND       PRES   REMARKS
LINDBERGH FLD  MOCLDY    68  58  70 W6        30.03R
POINT LOMA       N/A     64  57  78 NW6         N/A
NATIONAL CITY    N/A     68  61  78 NW3       30.02R
CHULA VISTA      N/A     67  62  83 CALM      29.94R
IMPERIAL BEACH CLOUDY    68  59  73 NW7       30.02R
BROWN FIELD    CLOUDY    65  59  81 W7        30.01R
MIRAMAR MCAS   CLOUDY    68  58  70 W6        30.02R
MONTGOMERY FLD CLOUDY    67  58  72 NW6       30.02R

$$

NORTH SAN DIEGO COUNTY

CITY           SKY/WX    TMP DP  RH WIND       PRES   REMARKS
CAMP PENDLETON CLOUDY    67  58  72 S6        30.01R
OCEANSIDE AP   CLOUDY    67  58  72 W3        30.00R
OCEANSIDE HBR    N/A     66  61  85 CALM      30.04R
VISTA            N/A     65  60  83 CALM      29.99R
CARLSBAD       CLOUDY    66  59  78 W5        30.01R
DEL MAR          N/A     65  61  85 CALM      30.04R
LA JOLLA SCRIP   N/A    N/A N/A N/A NW1       29.99R
FALLBROOK        N/A     65  63  93 S3        30.01R
ESCONDIDO        N/A     65  60  82 SW2       30.02R
SAN MARCOS       N/A     64  59  85 CALM      29.99R
POWAY            N/A     66  60  81 W2        30.02R

$$

EAST SAN DIEGO COUNTY

CITY           SKY/WX    TMP DP  RH WIND       PRES   REMARKS
RAMONA           N/A     63  58  83 W3        30.03R
SANTEE LAKES     N/A     66  60  80 CALM      30.00R
LA MESA          N/A     65  59  81 W3        29.77R
JAMUL            N/A     64  59  83 CALM      30.00R
DESCANSO N       N/A     59  56  89 CALM      29.84R
CAMPO            N/A     61  58  90 SW3       30.02R

$$

ORANGE COUNTY AND THE LOS ANGELES BASIN

CITY           SKY/WX    TMP DP  RH WIND       PRES   REMARKS
JOHN WAYNE AP  CLOUDY    66  59  78 W6        30.01R
LAKE FOREST FR   N/A     64  57  79 CALM      29.91R
SANTA ANA        N/A     68  60  76 CALM      29.96R
HUNTINGTON BCH   N/A     65  61  86 W7        30.03R
LOS ALAMITOS   CLOUDY    66  61  82 SW10      30.01R
FULLERTON      CLOUDY    67  60  78 SW8       30.00R
LONG BEACH     CLOUDY    69  60  73 VRB3      30.01R
L.A. AP        CLOUDY    64  59  83 W9        30.02R
L.A. DOWNTOWN  CLOUDY    66  59  78 CALM      30.01R

$$

THE INLAND EMPIRE

CITY           SKY/WX    TMP DP  RH WIND       PRES   REMARKS
CORONA         CLEAR     65  59  81 W10G18    30.01R
CHINO          CLEAR     66  60  81 W12       30.02R
ONTARIO        PTCLDY    65  59  81 W9        30.01R
RIVERSIDE AP   CLEAR     66  59  78 W7        30.01R
MORENO VALLEY    N/A     69  62  79 S1        29.95R
MARCH ARB      CLEAR     67  59  74 W6        30.02R
HORSETHIEF CYN   N/A     68  56  67 W2        30.01R
PERRIS           N/A     66  60  82 S6          N/A
MENIFEE          N/A     65  61  87 SE8       30.05R
HEMET EAST       N/A     69  57  65 CALM      30.01R
FRENCH VALLEY  MOCLDY    64  59  82 S8        30.03R
TEMECULA         N/A     65  61  87 CALM      29.97R

$$

SAN BERNARDINO AND RIVERSIDE COUNTY MOUNTAINS

CITY           SKY/WX    TMP DP  RH WIND       PRES   REMARKS
BIG BEAR AP    CLEAR     61  43  51 CALM      30.30R
PINE COVE        N/A     67  50  53 CALM      29.86R

$$

SOUTHERN DESERT INCLUDING THE COACHELLA VALLEY

CITY           SKY/WX    TMP DP  RH WIND       PRES   REMARKS
PALM SPRINGS   CLEAR     91  58  32 NW15      29.84R
THOUSAND PALMS   N/A     88  58  36 NW9       29.80R
PALM DESERT      N/A     91  60  35 N9          N/A
THERMAL        CLEAR     89  62  40 CALM      29.78R
BLYTHE         CLEAR     94  59  31 S16       29.81R
IMPERIAL AP    CLEAR     90  60  36 SE10      29.78R
EL CENTRO NAS  CLEAR     89  55  31 SE9       29.81R
YUMA AZ        CLEAR     92  54  27 S8        29.82R
MEXICALI       CLEAR     86  64  48 S8        29.81R

$$

UPPER DESERT

CITY           SKY/WX    TMP DP  RH WIND       PRES   REMARKS
VICTORVILLE AP CLEAR     77  45  31 S7        30.02R
HESPERIA         N/A     76  50  40 CALM      29.95R
APPLE VALLEY     N/A     77  46  33 CALM      30.06R
PALMDALE       CLEAR     78  25  14 W7        30.00R
LANCASTER      CLEAR     79  31  17 SW15      29.97R
EDWARDS AFB    CLEAR     79  33  18 SW16G23   29.94R
DAGGETT        PTCLDY    90  44  20 SW13      29.91R
29 PALMS N     MOCLDY    90  52  27 VRB5      29.98R
NEEDLES        MOCLDY    97  55  24 NW7       29.86R HX  95

$$

REGIONAL REPORTS

CITY           SKY/WX    TMP DP  RH WIND       PRES   REMARKS
SANTA BARBARA  CLEAR     63  59  87 E5        29.99R
SANDBERG       CLEAR     70  45  40 W7        30.14R
LAS VEGAS NV   CLOUDY    91  50  24 N15G22    29.90R
PHOENIX AZ     MOCLDY    85  66  53 SE8       29.93R
TIJUANA        CLOUDY    66  57  72 NW7       30.04R
ENSENADA NW      N/A     66  32  28 NW9       29.98R

$$

OFFSHORE ISLANDS

CITY           SKY/WX    TMP DP  RH WIND       PRES   REMARKS
CATALINA ARPT  CLOUDY    58  56  93 W9        30.04R FOG
SAN NICOLAS IS MOCLDY   N/A N/A N/A W9        30.02R

$$

MARINE AND OFFSHORE BUOY REPORTS

STATION/POSITION SKY/WX   TEMP    WIND        PRES    SWELL
                          AIR SEA DIR/SP/G            HT/PER/DIR
                          (F)     (DEG/KT/KT) (MB)    (FT/S/D)
TANNER BANKS               65 65  340/  6/  6 1016.4R   3/210/15
S CLEMENTE BASIN           65 68  300/ 10/ 12 1016.2R   3/200/15
SAN NICOLAS IS.               65                N/A     3/200/15
SO. S. ROSA ISLA           63 65  300/ 12/ 16 1015.3R   3/13
W. S. BARBARA CH           60 61  310/ 16/ 17 1015.2R   2/190/13
M. S. BARBARA CH           60 63  250/ 12/ 16 1016.4R
S. MONICA BASIN            64 68  330/  8/ 10 1016.1R   2/170/15
S PEDRO CHANNEL               66                N/A     2/180/15
DANA POINT                    69                N/A     2/190/15
OCEANSIDE OFFSHR              69                N/A     2/210/14
TORREY PINES OTR              69                N/A     2/210/15
LA JOLLA 1                 67 69  280/  3/  5 1015.7R
MISSION BAY BUOY              69                N/A     2/210/15
SAN DIEGO BAY                 71              1016.1R
POINT LOMA SOUTH              70                N/A     2/200/15

$$




USA.gov is the U.S. government's official web portal to all federal, state and local government web resources and services.